Westfield, MA

8:57 AM EST on December 18, 2017 (GMT -0500)
Barnes Municipal

Weather History for KBAF - January, 2012

Change the Weather History Date:

Thursday, January 19, 2012

  Actual Average Record
Temperature  
Mean Temperature 18 °F -  
Max Temperature 28 °F 27 °F 45 °F (2017)
Min Temperature 8 °F 11 °F -27 °F (1998)
Degree Days  
Heating Degree Days 47    
Moisture  
Dew Point 16 °F    
Average Humidity 77    
Maximum Humidity 93    
Minimum Humidity 45    
Precipitation  
Precipitation 0.15 in - - ()
Sea Level Pressure  
Sea Level Pressure 30.09 in    
Wind  
Wind Speed 2 mph (SSE)    
Max Wind Speed 9 mph    
Max Gust Speed -    
Visibility 6 miles    
Events Snow    
Averages and records for this station are not official NWS values.
T = Trace of Precipitation, MM = Missing Value Source: NWS Daily Summary

Daily Weather History Graph

Daily Weather History Graph

Search for Another Location

Airport or City:

Trip Planner

Search our weather history database for the weather conditions in past years. The results will help you decide how hot, cold, wet, or windy it might be!

Date:

Astronomy

Jan. 19, 2012 Rise Set
Actual Time 7:15 AM EST 4:48 PM EST
Civil Twilight 6:44 AM EST 5:19 PM EST
Nautical Twilight 6:10 AM EST 5:53 PM EST
Astronomical Twilight 5:36 AM EST 6:26 PM EST
Moon 3:49 AM EST (1/19) 1:16 PM EST (1/19)
Length of Visible Light 10h 34m
Length of Day
9h 33m
Waning Crescent, 16% of the Moon is Illuminated
Jan 19
Waning Crescent
Jan 23
New
Jan 30
First Quarter
Feb 7
Full
Feb 14
Last Quarter

Hourly Weather History & Observations

Time (EST) Temp. Windchill Dew Point Humidity Pressure Visibility Wind Dir Wind Speed Gust Speed Precip Events Conditions
12:53 AM 16.0 °F 8.8 °F 5.0 °F 62% 30.19 in 10.0 mi WNW 4.6 mph - N/A   Clear
1:53 AM 14.0 °F - 3.9 °F 64% 30.21 in 10.0 mi Calm Calm - N/A   Clear
2:53 AM 10.9 °F - 3.9 °F 73% 30.24 in 10.0 mi Calm Calm - N/A   Clear
3:53 AM 10.0 °F - 5.0 °F 80% 30.24 in 10.0 mi Calm Calm - N/A   Clear
4:53 AM 10.0 °F - 5.0 °F 80% 30.24 in 10.0 mi Calm Calm - N/A   Clear
5:53 AM 9.0 °F - 5.0 °F 84% 30.25 in 10.0 mi Calm Calm - N/A   Clear
6:53 AM 8.1 °F - 3.9 °F 83% 30.28 in 10.0 mi Calm Calm - N/A   Clear
7:53 AM 9.0 °F - 5.0 °F 84% 30.30 in 10.0 mi Calm Calm - N/A   Clear
8:53 AM 12.9 °F 3.8 °F 6.1 °F 74% 30.30 in 10.0 mi NNW 5.8 mph - N/A   Clear
9:53 AM - - - N/A% 30.27 in 10.0 mi NE 4.6 mph - N/A   Mostly Cloudy
10:53 AM 19.4 °F 12.8 °F 6.8 °F 58% 30.27 in 10.0 mi NNE 4.6 mph - N/A   Clear
11:53 AM 19.4 °F 14.3 °F 6.8 °F 58% 30.22 in 10.0 mi North 3.5 mph - N/A   Clear
12:53 PM - - - N/A% 30.16 in - North - - N/A   Unknown
1:53 PM 27.0 °F 19.5 °F 8.1 °F 45% 30.13 in 10.0 mi South 6.9 mph - N/A   Unknown
2:53 PM 28.9 °F 20.4 °F 10.0 °F 45% 30.12 in 10.0 mi South 9.2 mph - N/A   Overcast
3:53 PM 28.0 °F 20.0 °F 10.0 °F 47% 30.10 in 10.0 mi SSE 8.1 mph - N/A   Mostly Cloudy
4:53 PM 28.0 °F 24.2 °F 10.9 °F 49% 30.08 in 10.0 mi South 3.5 mph - N/A   Overcast
5:53 PM 28.0 °F - 14.0 °F 56% 30.08 in 10.0 mi Calm Calm - N/A   Overcast
6:18 PM 28.4 °F - 12.2 °F 51% 30.05 in 10.0 mi Calm Calm - N/A   Overcast
6:53 PM 28.9 °F 21.1 °F 18.0 °F 64% 30.07 in 9.0 mi South 8.1 mph - 0.00 in   Overcast
7:14 PM 28.4 °F 19.7 °F 21.2 °F 74% 30.03 in 2.0 mi SSE 9.2 mph - 0.00 in Snow Light Snow
7:28 PM 26.6 °F 20.0 °F 21.2 °F 80% 30.02 in 2.0 mi SSE 5.8 mph - 0.00 in Snow Light Snow
7:53 PM 27.0 °F - 23.0 °F 85% 30.04 in 2.0 mi Calm Calm - 0.01 in Snow Light Snow
8:00 PM 26.6 °F - 23.0 °F 86% 30.00 in 1.5 mi Calm Calm - 0.00 in Snow Light Snow
8:17 PM 26.6 °F - 24.8 °F 93% 29.99 in 1.0 mi Calm Calm - 0.01 in Snow Light Snow
8:28 PM 26.6 °F - 24.8 °F 93% 29.99 in 0.8 mi Calm Calm - 0.02 in Snow Light Snow
8:36 PM 26.6 °F - 24.8 °F 93% 29.99 in 0.8 mi Calm Calm - 0.03 in Snow Light Snow
8:47 PM 26.6 °F - 24.8 °F 93% 29.98 in 1.0 mi Calm Calm - 0.04 in Snow Light Snow
8:53 PM 26.1 °F - 24.1 °F 92% 30.01 in 1.0 mi Calm Calm - 0.04 in Snow Light Snow
9:01 PM 26.6 °F - 24.8 °F 93% 29.98 in 0.8 mi Calm Calm - 0.01 in Snow Light Snow
9:15 PM 26.6 °F - 23.0 °F 86% 29.97 in 0.8 mi Calm Calm - 0.02 in Snow Light Snow
9:51 PM 26.6 °F - 24.8 °F 93% 29.97 in 1.0 mi Calm Calm - 0.06 in Snow Light Snow
9:53 PM 26.1 °F - 24.1 °F 92% 29.97 in 1.0 mi Calm Calm - 0.06 in Snow Light Snow
10:00 PM 26.6 °F - 24.8 °F 93% 29.97 in 0.8 mi Calm Calm - 0.00 in Snow Light Snow
10:11 PM 26.6 °F - 24.8 °F 93% 29.97 in 1.0 mi Calm Calm - 0.01 in Snow Light Snow
10:53 PM 26.1 °F - 24.1 °F 92% 29.98 in 1.2 mi Calm Calm - 0.03 in Snow Light Snow
11:12 PM 26.6 °F - 24.8 °F 93% 29.95 in 1.8 mi Calm Calm - 0.01 in Snow Light Snow
11:18 PM 26.6 °F - 24.8 °F 93% 29.95 in 3.0 mi Calm Calm - N/A Snow Light Snow
11:53 PM 26.1 °F - 24.1 °F 92% 29.96 in 4.0 mi Calm Calm - 0.01 in Snow Light Snow